|  Orbital Elements
Epoch 2009 Feb. 18.0 TT = JDT 2454880.5
T 2009 Mar. 7.63414 TT                                  Kobayashi
q   2.3555583            (2000.0)            P               Q
n   0.10368538     Peri.  127.52923     +0.15622647     -0.98057059
a   4.4873613      Node   313.03668     +0.84728633     +0.19477522
e   0.4750683      Incl.    9.34111     +0.50764079     -0.02332220
P   9.51
From 989 observations 1989 Sept. 10-2010 Mar. 10, mean residual 0".8.
     Nongravitational parameters A1 = +1.53, A2 = -0.1300.
 |